[[{"header":{"parameterUnit":"m.s-1","parameterCategory":1,"la1":30.2991,"la2":30.254,"lo1":-89.0895,"lo2":-89.0444,"dy":0.0017,"dx":0.0017,"nx":28,"ny":28,"refTime":"2024-08-25T21:00:00:Z","depth":0,"parameterNumber":2,"parameterNumberName":"U-component_of_WINDS"},"data":[0,0,0,0,0,0,0,0,0,0,0,0,0,0,0,0,0,0,0,0,0,0,0,0,0,0,0,0,0,0,0,0,0,0,0,0,0,0,0,0,0,0,0,0,0,0,0,0,0,0,0,0,0,0,0,0,0,0,0.6232,0.6233,0,0.6324,0.6326,0.6327,0.6385,0.6385,0.6386,0.6386,0.648,0.6482,0.6484,0,0,0,0,0,0,0,0,0,0,0,0,0,0.6104,0.6106,0.6232,0.6233,0.6235,0.6324,0.6326,0.6327,0.6385,0.6385,0.6386,0.6386,0.6479,0.6482,0.6484,0,0,0,0,0,0,0,0,0,0,0,0,0,0.6174,0.6107,0.6232,0.6274,0.6279,0.6324,0.6326,0.6327,0.6385,0.6385,0.6386,0.6386,0.6478,0.6481,0.6485,0.6495,0,0,0.6495,0.6496,0,0,0,0,0,0,0,0,0.617,0.6179,0.6267,0.6272,0.6277,0.6344,0.6315,0.6383,0.6385,0.6345,0.6386,0.6387,0.6434,0.6441,0.6457,0.6499,0.6503,0.6495,0.6497,0.6498,0.6499,0,0,0,0,0,0,0,0.6165,0.6175,0.6269,0.6268,0.6274,0.6288,0.6298,0.6328,0.6385,0.6348,0.6353,0.6363,0.6437,0.6454,0.646,0.6504,0.6495,0.6498,0.65,0.6501,0.6556,0.6556,0,0,0,0,0,0,0.6154,0.6171,0.6266,0.6272,0.6224,0.629,0.6302,0.6322,0.6385,0.6395,0.6362,0.6365,0.6448,0.6456,0.6463,0.6477,0.6498,0.6501,0.6503,0.6557,0.6556,0.6555,0,0,0,0,0,0,0.6151,0.6162,0.6262,0.6222,0.6236,0.6291,0.6314,0.6323,0.634,0.6396,0.6406,0.6369,0.6449,0.6459,0.6486,0.6481,0.6503,0.6506,0.6557,0.6556,0.6556,0.6506,0,0,0,0,0,0,0.6147,0.6161,0.6166,0.6222,0.6238,0.6284,0.6313,0.6325,0.6346,0.6351,0.6405,0.6415,0.645,0.6481,0.6489,0.6486,0.6508,0.6558,0.6557,0.6556,0.6508,0.6504,0.65,0,0,0,0,0,0.6142,0.6149,0.6166,0.6177,0.6246,0.6283,0.6292,0.6333,0.6345,0.635,0.6385,0.6413,0.6481,0.6483,0.6493,0.6491,0.6558,0.6557,0.6556,0.651,0.6505,0.65,0,0,0,0,0,0,0.6091,0.6157,0.6176,0.6201,0.6236,0.6293,0.6301,0.6326,0.6358,0.6361,0.641,0.6422,0.6443,0.647,0.6472,0.6503,0.6522,0.6523,0.6484,0.6479,0.6475,0.6468,0.6511,0,0,0,0,0,0.6082,0.6107,0.6164,0.618,0.6197,0.6245,0.6263,0.6291,0.6329,0.6344,0.6382,0.6417,0.6446,0.6465,0.6495,0.6513,0.6524,0.6516,0.6512,0.6508,0.6508,0.6517,0.6513,0.6552,0.6552,0.6552,0,0,0.6065,0.6104,0.6117,0.6171,0.6201,0.6225,0.6258,0.6283,0.63,0.6348,0.6376,0.6404,0.6447,0.6468,0.648,0.6491,0.65,0.6507,0.6503,0.6505,0.6515,0.6512,0.6508,0.6551,0.6551,0.6551,0,0,0.6045,0.6078,0.6094,0.6124,0.6169,0.6201,0.6204,0.6257,0.6277,0.6305,0.6341,0.6363,0.6413,0.6441,0.6461,0.6449,0.6475,0.6458,0.6435,0.6443,0.644,0.6438,0.6432,0.6429,0.6458,0.6458,0.6458,0,0.6018,0.6056,0.6099,0.6122,0.6143,0.6187,0.6202,0.6229,0.6281,0.6294,0.6306,0.6368,0.64,0.6427,0.6424,0.644,0.6445,0.6452,0.6437,0.6435,0.6434,0.6428,0.6426,0.6455,0.6455,0.6456,0.6456,0,0.6019,0.6045,0.6053,0.6101,0.6124,0.6143,0.6187,0.6205,0.623,0.626,0.6287,0.6326,0.6364,0.6373,0.6398,0.6403,0.6409,0.6428,0.6449,0.6427,0.6422,0.6421,0.6451,0.6452,0.6453,0.6454,0,0,0.5971,0.6042,0.6044,0.6065,0.6117,0.6137,0.6157,0.6193,0.6206,0.624,0.6257,0.6297,0.6314,0.6338,0.6367,0.6374,0.6359,0.6393,0.6394,0.6383,0.6364,0.6348,0.6345,0.6376,0.6376,0.6376,0.636,0,0.5959,0.5997,0.6035,0.6059,0.6082,0.6122,0.6139,0.6171,0.62,0.6222,0.6254,0.628,0.6303,0.6317,0.6326,0.6359,0.6355,0.6361,0.6391,0.6391,0.6377,0.6343,0.6327,0.631,0.6359,0.6358,0.6358,0,0.5949,0.598,0.6006,0.6053,0.6064,0.6079,0.6114,0.6136,0.6173,0.6192,0.6217,0.6247,0.6268,0.6286,0.6315,0.6317,0.6332,0.6349,0.635,0.6353,0.6373,0.6344,0.6306,0.6302,0.6356,0.6357,0.6357,0,0.5909,0.5958,0.5979,0.5996,0.6052,0.6061,0.6084,0.6122,0.614,0.6171,0.6183,0.6215,0.6232,0.6256,0.6293,0.6304,0.6317,0.6339,0.6333,0.6331,0.6333,0.6332,0.6295,0.6345,0.6345,0.6345,0.6345,0,0.589,0.5904,0.5961,0.5974,0.599,0.6033,0.6047,0.6074,0.6106,0.6124,0.6161,0.6177,0.6226,0.6247,0.6276,0.6294,0.6302,0.6317,0.6325,0.6313,0.6311,0.6323,0.6324,0.6344,0.6344,0.6344,0.6344,0,0.5849,0.5888,0.5913,0.5963,0.5976,0.5985,0.6027,0.604,0.607,0.6091,0.6099,0.6145,0.6171,0.6211,0.6249,0.6269,0.6281,0.6294,0.6268,0.6273,0.6263,0.6263,0.6231,0.6228,0.628,0.628,0.6279,0,0.5834,0.5845,0.5896,0.591,0.5932,0.5955,0.5973,0.6015,0.6033,0.6074,0.6081,0.611,0.6136,0.6176,0.6212,0.6241,0.6254,0.6241,0.6259,0.6246,0.6252,0.625,0.625,0.6236,0.6235,0.6235,0.6234,0,0.5802,0.582,0.5846,0.5877,0.5897,0.5924,0.5953,0.5962,0.6009,0.6027,0.6054,0.6073,0.6111,0.6139,0.6172,0.6196,0.6222,0.6228,0.6228,0.6216,0.6199,0.6206,0.6255,0.6229,0.6229,0.623,0.623,0.623,0.5773,0.5783,0.582,0.5846,0.5871,0.5896,0.591,0.594,0.5964,0.5998,0.6021,0.6045,0.608,0.6127,0.6149,0.6168,0.6179,0.618,0.6179,0.6178,0.6173,0.6197,0.6174,0.6175,0.6175,0.6175,0.6175,0,0.5742,0.5766,0.579,0.5828,0.5847,0.587,0.5902,0.5917,0.5938,0.5968,0.5991,0.602,0.6047,0.6084,0.6113,0.6121,0.6133,0.6127,0.6126,0.613,0.6162,0.6159,0.6116,0.6116,0.6116,0.6116,0.6116,0.6116,0.5728,0.5746,0.5768,0.5799,0.5823,0.5848,0.5863,0.5886,0.5909,0.594,0.5962,0.5986,0.6018,0.6049,0.6073,0.6083,0.6091,0.608,0.6094,0.6123,0.6128,0.6134,0.613,0.6082,0.6082,0.606,0.606,0.606]},{"header":{"parameterUnit":"m.s-1","parameterCategory":1,"la1":30.2991,"la2":30.254,"lo1":-89.0895,"lo2":-89.0444,"dy":0.0017,"dx":0.0017,"nx":28,"ny":28,"refTime":"2024-08-25T21:00:00:Z","depth":0,"parameterNumber":3,"parameterNumberName":"V-component_of_WINDS"},"data":[0,0,0,0,0,0,0,0,0,0,0,0,0,0,0,0,0,0,0,0,0,0,0,0,0,0,0,0,0,0,0,0,0,0,0,0,0,0,0,0,0,0,0,0,0,0,0,0,0,0,0,0,0,0,0,0,0,0,2.9976,2.9975,0,2.9932,2.9932,2.9931,2.9911,2.9911,2.9911,2.9911,2.986,2.9859,2.9858,0,0,0,0,0,0,0,0,0,0,0,0,0,3.0036,3.0035,2.9976,2.9975,2.9975,2.9932,2.9932,2.9931,2.991,2.9911,2.9911,2.9911,2.9861,2.9859,2.9858,0,0,0,0,0,0,0,0,0,0,0,0,0,3.0003,3.0035,2.9976,2.9959,2.9958,2.9933,2.9932,2.9931,2.991,2.9911,2.9911,2.9911,2.9861,2.9859,2.9857,2.9844,0,0,2.9851,2.985,0,0,0,0,0,0,0,0,3.0005,3.0001,2.9962,2.9961,2.9958,2.9927,2.9935,2.9902,2.991,2.9928,2.9911,2.9911,2.9882,2.9878,2.987,2.9841,2.9839,2.9851,2.985,2.9849,2.9848,0,0,0,0,0,0,0,3.0007,3.0002,2.9958,2.9962,2.9959,2.9953,2.9948,2.9928,2.9905,2.9927,2.9925,2.992,2.9881,2.9872,2.9869,2.9839,2.9851,2.9849,2.9848,2.9847,2.9796,2.9796,0,0,0,0,0,0,3.0013,3.0004,2.996,2.9957,2.9982,2.9951,2.9946,2.9937,2.9905,2.9901,2.992,2.992,2.9876,2.9871,2.9867,2.9849,2.9849,2.9847,2.9846,2.9796,2.9796,2.9796,0,0,0,0,0,0,3.0014,3.0009,2.9962,2.998,2.9974,2.995,2.994,2.9936,2.9927,2.9901,2.9896,2.9916,2.9875,2.987,2.985,2.9847,2.9846,2.9844,2.9796,2.9796,2.9796,2.9813,0,0,0,0,0,0,3.0016,3.001,3.0005,2.9981,2.9973,2.9947,2.994,2.9935,2.9924,2.9923,2.9895,2.9891,2.9875,2.9853,2.9848,2.9844,2.9843,2.9797,2.9796,2.9796,2.9812,2.9813,2.9814,0,0,0,0,0,3.0018,3.0011,3.0005,3.0,2.9968,2.9947,2.9943,2.9926,2.9924,2.9919,2.9902,2.9892,2.9848,2.9851,2.9845,2.9841,2.9797,2.9796,2.9796,2.9812,2.9813,2.9814,0,0,0,0,0,0,3.0034,3.0007,3.0001,2.9985,2.9969,2.9944,2.9937,2.9928,2.991,2.9909,2.9888,2.9882,2.9864,2.985,2.9854,2.9825,2.9821,2.982,2.9835,2.9836,2.9837,2.984,2.9841,0,0,0,0,0,3.0036,3.0023,3.0,2.9988,2.9981,2.996,2.9951,2.994,2.9921,2.9913,2.9895,2.9876,2.9857,2.9846,2.9828,2.981,2.9803,2.9804,2.9804,2.9805,2.9804,2.9793,2.9793,2.9795,2.9795,2.9795,0,0,3.0039,3.0023,3.0016,2.9991,2.9977,2.9963,2.9954,2.994,2.9928,2.991,2.9891,2.9877,2.9854,2.9835,2.9826,2.9823,2.9802,2.9805,2.9806,2.9804,2.9793,2.9792,2.9792,2.9795,2.9795,2.9795,0,0,3.0038,3.0025,3.0014,3.0001,2.998,2.9967,2.9964,2.994,2.9931,2.9912,2.9898,2.9883,2.9853,2.9837,2.9825,2.9818,2.9807,2.9812,2.9816,2.9806,2.9805,2.9805,2.9802,2.9802,2.9811,2.9811,2.9811,0,3.0045,3.0025,3.0009,2.9996,2.9985,2.997,2.9958,2.9945,2.9918,2.991,2.9908,2.987,2.9853,2.983,2.9829,2.9819,2.9815,2.9815,2.9807,2.9807,2.9806,2.9803,2.9802,2.9812,2.9812,2.9812,2.9812,0,3.0033,3.0019,3.0013,2.999,2.9978,2.9965,2.9947,2.9936,2.9926,2.9912,2.9892,2.9872,2.985,2.9843,2.9833,2.9819,2.9818,2.9812,2.9807,2.9807,2.9804,2.9803,2.9813,2.9813,2.9813,2.9813,0,0,3.0041,3.0011,3.0008,2.9998,2.9974,2.9962,2.9948,2.9928,2.9919,2.9901,2.9888,2.9863,2.9857,2.9843,2.9831,2.9822,2.9817,2.9816,2.9815,2.9817,2.98,2.9805,2.9804,2.981,2.981,2.981,2.9802,0,3.0036,3.0013,2.9999,2.998,2.9966,2.9952,2.9939,2.9923,2.9909,2.9894,2.9879,2.9861,2.9855,2.9847,2.9837,2.982,2.9814,2.982,2.9796,2.9796,2.9803,2.9803,2.9808,2.9801,2.9801,2.9801,2.98,0,3.0028,3.0013,2.9994,2.9972,2.9965,2.9955,2.9935,2.9922,2.9902,2.9892,2.9878,2.9865,2.9848,2.9845,2.9821,2.9826,2.9815,2.9805,2.9804,2.9801,2.9798,2.9799,2.9799,2.9798,2.9798,2.9798,2.9799,0,3.0036,3.001,2.9995,2.9986,2.996,2.9953,2.9941,2.9922,2.9911,2.9893,2.9885,2.9865,2.9853,2.9837,2.9819,2.9818,2.9796,2.9791,2.9787,2.9787,2.9782,2.9783,2.978,2.9776,2.9776,2.9776,2.9776,0,3.0032,3.0021,2.9998,2.9989,2.9975,2.9958,2.9945,2.9931,2.9914,2.9901,2.9886,2.9874,2.9851,2.9835,2.982,2.9802,2.9796,2.9787,2.9784,2.9789,2.979,2.9781,2.9781,2.9776,2.9776,2.9776,2.9776,0,3.0038,3.0023,3.0005,2.9983,2.9976,2.9967,2.9947,2.9936,2.9923,2.9906,2.9901,2.9879,2.9859,2.984,2.9813,2.9803,2.9785,2.978,2.9792,2.979,2.9786,2.9787,2.9778,2.9775,2.9773,2.9773,2.9773,0,3.0037,3.0028,3.0005,2.9996,2.9985,2.9971,2.996,2.9942,2.9931,2.9908,2.99,2.988,2.9863,2.9832,2.9812,2.9792,2.9786,2.9784,2.9782,2.9788,2.9785,2.9786,2.9785,2.9784,2.9785,2.9785,2.9785,0,3.0036,3.0029,3.0015,2.9998,2.9986,2.9971,2.9955,2.9948,2.9927,2.9915,2.9896,2.9883,2.9857,2.9837,2.9814,2.98,2.9788,2.9786,2.9783,2.9788,2.9796,2.9791,2.9794,2.9786,2.9786,2.9786,2.9785,2.9785,3.0038,3.003,3.0012,2.9997,2.9983,2.9969,2.9959,2.9944,2.9929,2.9907,2.9897,2.9878,2.9857,2.9826,2.9812,2.9796,2.9793,2.9789,2.9788,2.9788,2.9789,2.9799,2.9791,2.9791,2.9791,2.9791,2.9791,0,3.0037,3.0025,3.0011,2.9991,2.9978,2.997,2.9953,2.9942,2.9926,2.9909,2.9893,2.9871,2.9851,2.983,2.9809,2.98,2.9794,2.9795,2.9795,2.9792,2.9793,2.9797,2.98,2.98,2.98,2.98,2.98,2.98,3.0035,3.002,3.0011,2.9989,2.9976,2.9959,2.9949,2.9936,2.9922,2.9899,2.9883,2.987,2.9851,2.9828,2.981,2.9804,2.9796,2.9799,2.9791,2.9792,2.9792,2.9791,2.9795,2.9797,2.9797,2.9791,2.9791,2.9791]}]]